ATLAS 5 CENTAUR DEB, 44645

Orbit data source: Space-Track

ATLAS 5 CENTAUR DEB, 44645 is space debris in HEO originally from a launch on Wed, 17 Oct 2018 UTC launched from the Air Force Eastern Test Range (AFETR). Debris objects in space refer to the collection of defunct objects orbiting the Earth. Examples of debris include non-operational satellites, rocket bodies, and fragments generated from explosions, collisions, or faulty payload assembly.

Loading next visibility...
Identifier
44645, 2018-079F
Orbit
HEO
Country
Flag of USUS
Related business
Flag of USUnited Launch Alliance/Lockheed Martin (US)
Manufacturer
ULA Decatur
Mission
Spacecraft
Bus & Motor
Unknown
Mass
Unknown
Launch date (UTC)
2018-10-17 (7 years ago)
Launch vehicle
Unknown
Launch site
Air Force Eastern Test Range (AFETR)
Object type
Payload
Rocket body
Debris
Shape & HBR
Unknown shape, 1.1 m
Radar Cross Section
RCS unknown

Expand to show TLE details & history
Last TLE update: 21 hours ago

TLE from 21 hours ago
0 ATLAS 5 CENTAUR DEB
1 44645U 18079F   25353.71677637 -.00000086  00000-0  00000-0 0  9995
2 44645  13.2621  32.4068 4638499 323.7042  12.3299  1.89807994 49630
Epoch: 2025-12-19T17:12Z
TLE epoch observation values (Epoch: 2025-12-19T17:12:09.478Z)
Latitude
0.00011°
Longitude
45.78172°
Altitude
9,396.554 km
Speed
6.006 km/s
True Right ascension
02h 09m 30s
True Declination
0° 00' 00"
Sunlit
Object was in daylight at epoch
Visualization orbit readout
Latitude
Unknown
Longitude
Unknown
Altitude
Unknown
Speed
Unknown
Apparent Right ascension
Unknown
Apparent Declination
Unknown
Sunlit
N/A
Visualization observer readout
Local Sidereal Time
13:04:57
Azimuth
Unknown
Elevation
Unknown
Doppler factor
Unknown
Orbital elements
Apogee altitude
33,960.606 km
Perigee altitude
8,396.343 km
Semi-major axis
27,556.611 km
Eccentricity
0.46385
Inclination
13.2621°
RAAN
32.4068°
Arg. of periapsis
323.7042°
True anomaly
36.38974°
Mean anomaly
12.3299°
Eccentric anomaly
22.5006°
Mean motion
0.47447 °/min
Orbital period
758.75 mins
BSTAR
0
Loading maneuver chart data...
Computing Atmospheric mass density...

Documentation

Showing up to 5 results
|